Volver al catálogo

NOAA 16 DEB

ActivoPO
NORAD 41050·DEBRIS·🇺🇸 United States

Lanzado Sep 21, 2000 desde Vandenberg Space Force Base

Loading…

Próximos Pases (próximas 24 horas)

TLE

ActualizadoSource: Space-Track

Época: Sep 14, 2026, 14:36 UTC

1 41050U 00055H   26257.60867123  .00040090  00000-0  30762-2 0  9998
2 41050  98.9253 133.2109 0007123  90.8384 269.3653 15.01640623564593

Sigue NOAA 16 DEB en tiempo real con AllMySat

Download on the App Store